Weather History for KRFD - December, 2014

Change the Weather History Date:

Monday, December 8, 2014

  Actual Average Record
Temperature  
Mean Temperature 34 °F 28 °F  
Max Temperature 37 °F 35 °F 60 °F (1991)
Min Temperature 31 °F 20 °F -6 °F (1958)
Degree Days  
Heating Degree Days 31 37  
Month to date heating degree days 293 286  
Since 1 July heating degree days 1840 1621  
Cooling Degree Days 0 0  
Month to date cooling degree days 0 0  
Year to date cooling degree days 729 820  
Moisture  
Dew Point 31 °F    
Average Humidity 91    
Maximum Humidity 100    
Minimum Humidity 82    
Precipitation  
Precipitation 0.15 in 0.08 in 0.67 in (2009)
Month to date precipitation 0.15 0.61  
Year to date precipitation 32.72 34.87  
Snow  
Snow T in 0.40 in 6.60 in (2009)
Month to date snowfall T 2.5  
Since 1 July snowfall 3.6 4.3  
Snow Depth 0.00 in    
Sea Level Pressure  
Sea Level Pressure 30.10 in    
Wind  
Wind Speed 10 mph (SW)    
Max Wind Speed 18 mph    
Max Gust Speed 23 mph    
Visibility 3 miles    
Events Fog , Rain , Snow    
T = Trace of Precipitation, MM = Missing Value Source: NWS Daily Summary

Daily Weather History Graph

Daily Weather History Graph

Search for Another Location

Airport or City:

Trip Planner

Search our weather history database for the weather conditions in past years. The results will help you decide how hot, cold, wet, or windy it might be!

Date:

Astronomy

Dec. 08, 2014 Rise Set
Actual Time 7:12 AM CST 4:24 PM CST
Civil Twilight 6:40 AM CST 4:55 PM CST
Nautical Twilight 6:05 AM CST 5:30 PM CST
Astronomical Twilight 5:31 AM CST 6:04 PM CST
Moon 6:48 PM CST (12/8) 8:42 AM CST (12/8)
Length of Visible Light 10h 15m
Length of Day
9h 11m
Waning Gibbous, 95% of the Moon is Illuminated
Dec 8
Waning Gibbous
Dec 14
Last Quarter
Dec 21
New
Dec 28
First Quarter
Jan 4
Full

Hourly Weather History & Observations

Time (CST) Temp. Windchill Dew Point Humidity Pressure Visibility Wind Dir Wind Speed Gust Speed Precip Events Conditions
12:54 AM 30.9 °F 22.8 °F 27.0 °F 85% 30.28 in 10.0 mi South 9.2 mph - N/A   Overcast
1:54 AM 30.9 °F 22.8 °F 27.0 °F 85% 30.25 in 8.0 mi South 9.2 mph - N/A   Overcast
2:27 AM 32.0 °F 24.2 °F 26.6 °F 80% 30.21 in 8.0 mi South 9.2 mph - N/A Rain Light Rain
2:44 AM 32.0 °F 23.6 °F 28.0 °F 85% 30.20 in 7.0 mi South 10.4 mph - 0.00 in Rain Light Freezing Rain
2:54 AM 32.0 °F 23.6 °F 28.0 °F 85% 30.22 in 6.0 mi South 10.4 mph - 0.00 in Rain Light Freezing Rain
3:08 AM 32.0 °F 23.6 °F 28.0 °F 85% 30.19 in 6.0 mi South 10.4 mph - 0.00 in   Overcast
3:54 AM 32.0 °F 23.0 °F 28.0 °F 85% 30.19 in 6.0 mi South 11.5 mph - 0.00 in   Overcast
4:02 AM 32.0 °F 23.6 °F 28.0 °F 85% 30.16 in 6.0 mi South 10.4 mph - N/A   Overcast
4:16 AM 32.0 °F 24.2 °F 28.0 °F 85% 30.15 in 4.0 mi South 9.2 mph - 0.00 in Rain Light Freezing Rain
4:54 AM 32.0 °F 24.2 °F 28.9 °F 88% 30.16 in 3.0 mi South 9.2 mph - 0.04 in Rain Light Freezing Rain
5:26 AM 32.0 °F 24.8 °F 30.0 °F 92% 30.13 in 3.0 mi South 8.1 mph - 0.02 in Rain Light Freezing Rain
5:41 AM 32.0 °F 24.8 °F 30.0 °F 92% 30.12 in 2.0 mi South 8.1 mph - 0.03 in Rain Light Freezing Rain
5:54 AM 33.1 °F 24.9 °F 30.0 °F 89% 30.14 in 2.0 mi South 10.4 mph - 0.04 in Rain Light Freezing Rain
6:54 AM 33.1 °F 26.1 °F 30.9 °F 92% 30.13 in 2.0 mi South 8.1 mph - 0.05 in Rain Light Freezing Rain
7:28 AM 33.1 °F 27.7 °F 30.9 °F 92% 30.10 in 1.5 mi South 5.8 mph - 0.00 in Rain Light Freezing Rain
7:48 AM 33.8 °F 27.7 °F 30.2 °F 87% 30.10 in 1.5 mi South 6.9 mph - 0.00 in   Overcast
7:54 AM 33.1 °F 26.9 °F 30.9 °F 92% 30.12 in 1.5 mi South 6.9 mph - 0.00 in   Overcast
8:07 AM 33.1 °F 26.9 °F 30.9 °F 92% 30.09 in 1.5 mi South 6.9 mph - 0.01 in   Light Ice Pellets
8:20 AM 33.1 °F 26.1 °F 30.9 °F 92% 30.09 in 1.5 mi South 8.1 mph - 0.01 in   Light Drizzle
8:51 AM 33.8 °F 27.0 °F 30.2 °F 87% 30.09 in 1.2 mi South 8.1 mph - 0.01 in   Light Drizzle
8:54 AM 33.1 °F 26.1 °F 30.9 °F 92% 30.11 in 1.2 mi South 8.1 mph - 0.01 in   Light Drizzle
9:34 AM 33.1 °F 26.1 °F 32.0 °F 96% 30.08 in 0.8 mi SSW 8.1 mph - 0.00 in   Overcast
9:54 AM 33.1 °F 25.5 °F 32.0 °F 96% 30.11 in 0.5 mi SSW 9.2 mph - 0.00 in Fog Light Drizzle
10:15 AM 34.0 °F 27.2 °F 32.0 °F 92% 30.07 in 0.5 mi SSW 8.1 mph - 0.00 in Fog Light Drizzle
10:54 AM 35.1 °F 28.6 °F 33.1 °F 92% 30.08 in 0.5 mi SSW 8.1 mph - 0.00 in   Light Drizzle
11:15 AM 35.1 °F 28.6 °F 33.1 °F 92% 30.04 in 1.0 mi SSW 8.1 mph - 0.00 in   Light Drizzle
11:33 AM 36.0 °F 30.3 °F 34.0 °F 93% 30.03 in 1.5 mi SW 6.9 mph - 0.00 in   Overcast
11:54 AM 36.0 °F 29.0 °F 34.0 °F 93% 30.06 in 1.5 mi SW 9.2 mph - 0.00 in   Overcast
12:12 PM 37.0 °F 31.0 °F 34.0 °F 89% 30.02 in 2.0 mi SW 8.1 mph - N/A   Overcast
12:39 PM 37.0 °F 31.6 °F 34.0 °F 89% 30.00 in 1.5 mi SW 6.9 mph - 0.00 in   Light Drizzle
12:54 PM 37.0 °F 31.6 °F 34.0 °F 89% 30.02 in 1.5 mi SW 6.9 mph - 0.00 in   Light Drizzle
1:15 PM 37.0 °F 30.4 °F 35.1 °F 93% 29.99 in 1.2 mi SW 9.2 mph - 0.00 in   Light Drizzle
1:44 PM 36.0 °F 29.0 °F 34.0 °F 93% 29.98 in 0.8 mi SW 9.2 mph - 0.00 in   Light Drizzle
1:54 PM 36.0 °F 28.5 °F 35.1 °F 97% 30.01 in 0.8 mi SW 10.4 mph - 0.00 in   Light Drizzle
2:54 PM 37.0 °F 31.0 °F 35.1 °F 93% 30.01 in 1.0 mi WSW 8.1 mph - 0.01 in Rain Light Rain
3:07 PM 37.0 °F 31.0 °F 35.1 °F 93% 29.99 in 2.0 mi SW 8.1 mph - 0.00 in Rain Light Rain
3:14 PM 37.0 °F 31.0 °F 35.1 °F 93% 30.00 in 2.5 mi SW 8.1 mph - 0.00 in Rain Light Rain
3:54 PM 37.0 °F 31.0 °F 35.1 °F 93% 30.03 in 3.0 mi West 8.1 mph - 0.00 in   Light Drizzle
4:26 PM 36.0 °F 27.5 °F 33.1 °F 89% 30.02 in 2.5 mi WNW 12.7 mph - 0.00 in   Light Drizzle
4:54 PM 36.0 °F 28.0 °F 33.1 °F 89% 30.05 in 2.5 mi WNW 11.5 mph - 0.00 in   Light Drizzle
5:30 PM 36.0 °F 29.0 °F 33.1 °F 89% 30.04 in 2.5 mi WNW 9.2 mph - 0.00 in   Light Drizzle
5:54 PM 35.1 °F 26.4 °F 32.0 °F 89% 30.06 in 2.5 mi WNW 12.7 mph - 0.00 in   Light Drizzle
6:01 PM 35.1 °F 26.4 °F 32.0 °F 89% 30.04 in 4.0 mi WNW 12.7 mph - 0.00 in   Light Drizzle
6:13 PM 35.1 °F 27.4 °F 32.0 °F 89% 30.05 in 4.0 mi WNW 10.4 mph - 0.00 in   Light Drizzle
6:54 PM 33.1 °F 23.9 °F 30.0 °F 89% 30.09 in 4.0 mi WNW 12.7 mph 23.0 mph 0.00 in   Light Drizzle
7:19 PM 33.1 °F 23.0 °F 30.0 °F 89% 30.07 in 4.0 mi WNW 15.0 mph - 0.00 in   Light Drizzle
7:54 PM 33.1 °F 22.6 °F 28.9 °F 85% 30.11 in 3.0 mi WNW 16.1 mph - 0.00 in   Light Drizzle
8:54 PM 32.0 °F 22.1 °F 28.9 °F 88% 30.12 in 3.0 mi WNW 13.8 mph - 0.00 in Snow Light Snow
9:54 PM 32.0 °F 23.6 °F 28.9 °F 88% 30.13 in 3.0 mi WNW 10.4 mph - 0.00 in Snow Light Snow
10:54 PM 32.0 °F 23.6 °F 30.0 °F 92% 30.15 in 3.0 mi NW 10.4 mph - 0.00 in Snow Light Snow
11:54 PM 33.1 °F 24.4 °F 28.9 °F 85% 30.16 in 4.0 mi NNW 11.5 mph - 0.00 in   Overcast